Regional Weather Roundup
Issued by NWS Spokane, WA

Home | Current Version | Previous Version | Text Only | Print | Product List | Glossary On
Versions: 1 2 3 4 5 6 7 8 9 10 11 12 13 14 15 16 17 18 19 20 21 22 23 24 25 26 27 28 29 30 31 32 33 34 35 36 37 38 39 40 41 42 43 44 45 46 47 48 49 50
359
NZUS01 KOTX 181700
RWROTX

Eastern Washington/Northern Idaho Roundup
National Weather Service, Spokane WA
900 AM PST WED JAN 18 2017

Note: "fair" indicated few or no clouds below 12,000 feet with no
significant weather and/or obstructions to visibility.

...Northeast Washington and Northern Idaho Panhandle...

CITY           SKY/WX    TMP DP  RH WIND       PRES   REMARKS
Spokane Intl   LGT RAIN  36  36 100 SE13G21   29.63S FOG
Spokane Downto CLOUDY    39  36  89 SE7       29.66S
Coeur d Alene  LGT RAIN  36  35  96 SW3       29.68S
Deer Park      LGT RAIN  33  32  96 CALM      29.66S FOG

...Southeast Washington and southern Idaho Panhandle...

CITY           SKY/WX    TMP DP  RH WIND       PRES   REMARKS
Walla Walla    CLOUDY    49  34  56 S15G31    29.58F
Pullman/Moscow LGT RAIN  35  29  78 SE24G32   29.71R WCI  23
Lowell           N/A     31  28  89 N6        29.83S WCI  25

...Columbia Basin...

CITY           SKY/WX    TMP DP  RH WIND       PRES   REMARKS
Ephrata        MIX PCPN  30  23  75 NW5       29.63R WCI  25
Moses Lake     CLOUDY    27  24  89 S5        29.63F FOG     WCI  22
Pasco          CLOUDY    25  23  92 W5        29.69F FOG     WCI  19
Hermiston      CLOUDY    23  20  88 NW5       29.63F FOG     WCI  17
Pendleton      CLOUDY    45  35  68 S15       29.59F

...East Slopes Cascades...

CITY           SKY/WX    TMP DP  RH WIND       PRES   REMARKS
The Dalles     MOSUNNY   24  20  84 SW6       29.66S FOG     WCI  17
Yakima         CLOUDY    28  24  85 CALM      29.63F FOG
Ellensburg     CLOUDY    26  21  81 NW3       29.58F HAZE
Wenatchee      CLOUDY    21  18  88 W6        29.65F WCI  13
Omak           LGT SNOW  24  20  84 CALM      29.64F FOG
Sunnyside      CLOUDY    21  18  90 CALM      29.66F FOG

...Southern British Columbia...

CITY           SKY/WX    TMP DP  RH WIND       PRES   REMARKS
Cranbrook      LGT SNOW  30  30 100 VRB2      29.64S VSB 1

...Western Montana...

CITY           SKY/WX    TMP DP  RH WIND       PRES   REMARKS
Kalispell      LGT RAIN  25  21  85 CALM      29.71F FOG
Missoula       CLOUDY    23  18  81 CALM      29.79S

...Neighboring Cities...

CITY           SKY/WX    TMP DP  RH WIND       PRES   REMARKS
Seattle        LGT RAIN  45  43  93 SE8       29.36R FOG
Portland       LGT RAIN  35  35 100 E13       29.47R FOG     WCI  26
Boise          MIX PCPN  18  15  88 VRB3      30.03R FOG
Great Falls    CLOUDY    43  24  47 S24       29.57F



USA.gov is the U.S. government's official web portal to all federal, state and local government web resources and services.